Waarnemingen

Advertentie
Mijn weer
Llanes, Spanje (8016): temperatuur & dauwpunt: 23.01.2020 19:00:00 - 29.01.2020 19:00:00 (CET)Llanes, Spanje (8016): windsnelheid & windstoten: 23.01.2020 19:00:00 - 29.01.2020 19:00:00 (CET)Llanes, Spanje (8016): windrichting: 23.01.2020 19:00:00 - 29.01.2020 19:00:00 (CET)Llanes, Spanje (8016): luchtdruk: 23.01.2020 19:00:00 - 29.01.2020 19:00:00 (CET)Llanes, Spanje (8016): zicht: 23.01.2020 19:00:00 - 29.01.2020 19:00:00 (CET)Llanes, Spanje (8016): Zonneschijnduur: 23.01.2020 19:00:00 - 29.01.2020 19:00:00 (CET)Llanes, Spanje (8016): neerslag: 23.01.2020 19:00:00 - 29.01.2020 19:00:00 (CET)
Datum & Tijd tt [°C] td [°C] ff [km/u] ff [kn] fx [km/u] fx [kn] dd ppp [hPa] vv [km] sd [min] rr [mm]
29.01.2020 19:00:00 13,4 11,2 3 2 9 5 W 1016,6 1,6 0 -
29.01.2020 18:00:00 13,9 11,6 3 1 11 6 WZW 1015,7 3,3 0 0,0
29.01.2020 17:00:00 13,7 11,4 6 4 17 9 ZW 1015,8 4,4 0 0,4
29.01.2020 16:00:00 13,5 11,2 7 4 14 8 NW 1015,2 3,6 0 0,4
29.01.2020 15:00:00 13,3 10,9 6 4 20 11 W 1016,0 3,4 0 0,0
29.01.2020 14:00:00 12,9 10,4 5 3 9 5 O 1017,0 4,9 0 0,2
29.01.2020 13:00:00 13,0 10,8 3 2 7 4 O 1018,7 4,0 0 -
29.01.2020 12:00:00 12,4 10,3 3 2 8 5 ONO 1019,3 1,0 0 0,0
29.01.2020 11:00:00 11,2 9,2 4 2 7 4 WZW 1019,7 3,0 0 0,0
29.01.2020 10:00:00 10,3 8,3 2 1 8 4 W 1019,7 6 0 0,0
29.01.2020 09:00:00 9,4 7,3 7 4 20 11 WZW 1019,6 16 0 0,0
29.01.2020 08:00:00 9,6 7,6 4 2 13 7 WZW 1019,7 11 0 0,2
29.01.2020 07:00:00 9,6 7,6 8 4 14 7 WZW 1019,5 10 0 -
29.01.2020 06:00:00 10,2 7,8 3 1 8 4 ZW 1019,7 6 0 0,2
29.01.2020 05:00:00 10,3 7,8 4 2 10 5 ZZO 1020,3 2,9 0 0,6
29.01.2020 04:00:00 10,4 7,7 6 3 16 8 Z 1021,0 2,7 0 1,2
29.01.2020 03:00:00 10,5 7,4 3 2 13 7 WNW 1020,8 3,0 0 0,4
29.01.2020 02:00:00 10,8 6,7 9 5 14 7 WZW 1020,4 15 0 0,0
29.01.2020 01:00:00 10,7 6,4 9 5 14 7 WZW 1020,5 19 0 -
29.01.2020 00:00:00 11,0 6,4 8 5 13 7 WZW 1020,4 18 0 0,0
28.01.2020 23:00:00 10,7 6,2 9 5 13 7 ZW 1020,7 20 0 0,0
28.01.2020 22:00:00 11,2 6,4 4 2 12 6 ZW 1020,7 6 0 0,0
28.01.2020 21:00:00 11,1 6,2 9 5 13 7 WZW 1020,8 14 0 0,0
28.01.2020 20:00:00 11,2 6,1 7 4 16 9 W 1020,5 17 0 0,0
28.01.2020 19:00:00 10,9 6,2 8 4 14 8 ZW 1020,0 12 0 -
28.01.2020 18:00:00 12,7 7,1 3 2 10 5 Z 1019,4 3,1 0 0,0
28.01.2020 17:00:00 13,3 7,3 9 5 25 13 W 1019,4 12 0 0,0
28.01.2020 16:00:00 13,6 6,7 14 8 29 15 NW 1019,2 12 16 0,2
28.01.2020 15:00:00 14,1 7,4 15 8 27 15 WNW 1019,5 13 56 0,0
28.01.2020 14:00:00 14,2 6,8 16 8 21 12 NW 1019,9 12 60 0,0
28.01.2020 13:00:00 14,5 6,8 4 2 11 6 WNW 1020,2 20 51 -
28.01.2020 12:00:00 14,5 6,8 2 1 12 6 W 1020,3 10 36 0,0
28.01.2020 11:00:00 12,8 7,0 5 3 16 9 ZW 1020,0 9 60 0,0
28.01.2020 10:00:00 10,6 5,8 8 4 15 8 ZW 1019,5 20 34 0,0
28.01.2020 09:00:00 9,8 5,5 8 4 20 11 ZW 1018,4 20 0 0,0
28.01.2020 08:00:00 10,8 6,1 9 5 23 12 W 1017,7 20 0 0,0
28.01.2020 07:00:00 10,3 7,4 8 5 23 13 W 1017,4 20 0 -
28.01.2020 06:00:00 10,2 8,0 9 5 15 8 W 1016,8 20 0 0,0
28.01.2020 05:00:00 11,1 8,3 2 1 7 4 Z 1015,7 7 0 0,0
28.01.2020 04:00:00 12,0 9,0 5 3 18 10 ZW 1015,9 20 0 0,0
28.01.2020 03:00:00 12,1 9,3 13 7 37 20 WNW 1015,6 20 0 0,0
28.01.2020 02:00:00 11,8 9,6 17 9 35 19 WNW 1015,6 16 0 0,4
28.01.2020 01:00:00 11,9 9,8 3 1 11 6 WNW 1015,3 9 0 -
28.01.2020 00:00:00 11,8 9,6 9 5 15 8 W 1015,1 4,2 0 0,8
27.01.2020 23:00:00 11,9 9,3 4 2 18 10 W 1013,9 10 0 0,4
27.01.2020 22:00:00 12,0 8,8 3 1 14 7 NO 1013,4 10 0 0,2
27.01.2020 21:00:00 11,8 7,8 4 2 11 6 W 1012,9 20 0 0,0
27.01.2020 20:00:00 11,9 8,1 5 3 19 10 ZZW 1012,4 20 0 0,0
27.01.2020 19:00:00 12,5 8,9 1 1 12 6 NO 1011,5 10 0 -
27.01.2020 18:00:00 13,5 9,6 5 3 8 4 W 1011,3 20 0 0,0
27.01.2020 17:00:00 14,0 9,2 6 3 9 5 W 1011,3 20 0 0,0
27.01.2020 16:00:00 14,1 9,2 3 1 24 13 NO 1011,4 16 0 0,0
27.01.2020 15:00:00 13,0 9,8 11 6 18 10 ZO 1011,9 9 0 0,0
27.01.2020 14:00:00 13,2 10,0 1 1 35 19 WNW 1013,9 10 0 0,4
27.01.2020 13:00:00 - - - - - - - - - - -
27.01.2020 12:00:00 12,6 9,4 4 2 10 5 ZO 1015,8 4,4 0 0,2
27.01.2020 11:00:00 12,2 9,0 5 3 10 5 ZW 1016,6 13 0 0,0
27.01.2020 10:00:00 11,8 8,3 5 3 16 9 W 1016,6 5 0 0,2
27.01.2020 09:00:00 11,8 7,7 11 6 21 11 W 1016,1 20 0 0,0
27.01.2020 08:00:00 11,6 6,1 11 6 24 13 W 1014,5 20 0 0,0
27.01.2020 07:00:00 10,7 5,6 10 5 21 11 WZW 1013,5 20 0 -
27.01.2020 06:00:00 10,2 4,8 6 4 18 10 ZW 1013,6 10 0 0,4
27.01.2020 05:00:00 10,2 3,9 4 2 16 8 Z 1014,3 20 0 0,0
27.01.2020 04:00:00 9,9 3,0 6 3 16 9 W 1015,9 20 0 0,0
27.01.2020 03:00:00 8,9 2,7 5 3 10 5 W 1015,9 20 0 0,0
27.01.2020 02:00:00 9,2 2,7 3 1 10 6 Z 1016,5 20 0 0,0
27.01.2020 01:00:00 9,5 2,3 8 4 19 10 WZW 1017,2 20 0 -
27.01.2020 00:00:00 9,4 2,5 10 5 16 9 WZW 1017,4 20 0 0,0
26.01.2020 23:00:00 9,5 3,2 3 2 16 9 ZZW 1018,0 20 0 0,0
26.01.2020 22:00:00 9,3 3,8 2 1 8 4 Z 1018,2 20 0 0,0
26.01.2020 21:00:00 9,5 3,9 4 2 14 8 WZW 1018,9 20 0 0,0
26.01.2020 20:00:00 10,6 3,8 9 5 17 9 WZW 1018,7 20 0 0,0
26.01.2020 19:00:00 12,3 4,5 4 2 14 8 Z 1018,6 20 0 -
26.01.2020 18:00:00 13,1 5,9 13 7 16 9 OZO 1018,4 19 0 0,0
26.01.2020 17:00:00 13,7 7,8 10 5 21 11 OZO 1018,6 18 0 0,0
26.01.2020 16:00:00 13,7 7,7 9 5 31 17 OZO 1018,6 19 16 0,0
26.01.2020 15:00:00 13,9 7,1 13 7 21 11 OZO 1019,4 20 60 0,0
26.01.2020 14:00:00 13,8 6,1 11 6 17 9 O 1019,9 20 60 0,0
26.01.2020 13:00:00 12,7 7,1 10 5 13 7 O 1020,4 20 51 -
26.01.2020 12:00:00 13,1 7,7 1 1 9 5 OZO 1020,9 16 35 0,0
26.01.2020 11:00:00 11,2 7,3 4 2 8 4 WZW 1021,1 20 60 0,0
26.01.2020 10:00:00 7,6 4,5 3 2 11 6 ZZW 1021,1 20 41 0,0
26.01.2020 09:00:00 5,8 3,0 5 3 12 6 WZW 1020,8 20 0 0,0
26.01.2020 08:00:00 6,4 3,9 9 5 17 9 WZW 1020,1 20 0 0,0
26.01.2020 07:00:00 6,2 3,9 2 1 8 4 W 1019,5 20 0 -
26.01.2020 06:00:00 6,9 4,6 4 2 11 6 Z 1019,0 18 0 0,0
26.01.2020 05:00:00 6,6 4,1 7 4 12 6 WZW 1018,8 20 0 0,0
26.01.2020 04:00:00 6,9 4,5 6 3 13 7 ZW 1018,7 19 0 0,0
26.01.2020 03:00:00 7,2 4,5 5 3 9 5 ZZW 1018,5 17 0 0,0
26.01.2020 02:00:00 8,2 5,5 6 3 17 9 ZW 1018,4 20 0 0,0
26.01.2020 01:00:00 7,4 4,5 7 4 16 9 WZW 1018,5 18 0 -
26.01.2020 00:00:00 7,4 4,6 10 5 16 9 WZW 1018,4 18 0 0,0
25.01.2020 23:00:00 8,6 5,9 11 6 17 9 ZW 1018,4 20 0 0,0
25.01.2020 22:00:00 9,8 6,7 8 5 12 6 ZZW 1018,4 19 0 0,0
25.01.2020 21:00:00 9,4 6,5 9 5 13 7 ZW 1018,2 20 0 0,0
25.01.2020 20:00:00 10,1 6,8 9 5 14 7 WZW 1017,7 13 0 0,0
25.01.2020 19:00:00 11,1 7,3 1 1 5 3 N 1017,0 20 0 -
25.01.2020 18:00:00 11,8 7,6 3 2 5 3 ZZW 1016,5 20 0 0,0
25.01.2020 17:00:00 12,2 7,6 2 1 6 3 NNW 1016,3 20 0 0,0
25.01.2020 16:00:00 13,0 7,7 3 2 8 4 NNW 1015,9 20 16 0,0
25.01.2020 15:00:00 13,2 7,8 2 1 6 4 NNW 1016,1 20 47 0,0
25.01.2020 14:00:00 13,0 7,4 3 1 15 8 N 1016,4 19 51 0,0
25.01.2020 13:00:00 12,4 7,3 3 1 5 3 NNW 1017,1 12 47 -
25.01.2020 12:00:00 11,9 7,3 1 1 5 3 NW 1017,6 20 6 0,0
25.01.2020 11:00:00 10,0 5,6 2 1 8 4 W 1017,6 20 31 0,0
25.01.2020 10:00:00 9,2 5,0 5 3 11 6 ZW 1017,6 20 0 0,0
25.01.2020 09:00:00 8,7 5,0 2 1 6 3 W 1017,3 20 0 0,0
25.01.2020 08:00:00 9,1 4,6 7 4 13 7 ZW 1016,9 20 0 0,0
25.01.2020 07:00:00 8,5 4,5 8 5 11 6 WZW 1016,6 20 0 -
25.01.2020 06:00:00 8,2 4,5 3 2 8 4 WZW 1016,6 20 0 0,0
25.01.2020 05:00:00 8,2 4,3 7 4 11 6 WZW 1016,7 20 0 0,0
25.01.2020 04:00:00 8,2 4,5 3 2 9 5 Z 1017,1 20 0 0,0
25.01.2020 03:00:00 7,6 3,8 9 5 13 7 WZW 1017,4 20 0 0,0
25.01.2020 02:00:00 7,4 3,6 2 1 5 3 W 1017,6 20 0 0,0
25.01.2020 01:00:00 8,4 4,5 6 3 16 9 ZW 1018,0 20 0 -
25.01.2020 00:00:00 8,2 4,5 4 2 11 6 ZW 1018,1 17 0 0,0
24.01.2020 23:00:00 9,0 5,0 5 3 10 5 WZW 1018,6 17 0 0,0
24.01.2020 22:00:00 9,8 5,5 3 2 12 6 ZW 1018,8 18 0 0,0
24.01.2020 21:00:00 10,1 5,6 8 4 12 6 WZW 1019,0 18 0 0,0
24.01.2020 20:00:00 10,1 5,9 9 5 11 6 WZW 1018,6 18 0 0,0
24.01.2020 19:00:00 10,7 6,2 7 4 11 6 WZW 1018,2 17 0 -
24.01.2020 18:00:00 11,5 6,4 0 0 9 5 N 1017,9 18 0 0,0
24.01.2020 17:00:00 12,0 6,2 6 3 15 8 OZO 1017,7 18 0 0,0
24.01.2020 16:00:00 13,2 7,1 8 5 11 6 O 1017,9 19 16 0,0
24.01.2020 15:00:00 13,8 8,0 4 2 6 3 O 1018,3 19 43 0,0
24.01.2020 14:00:00 12,8 6,8 2 1 7 4 ONO 1018,7 20 60 0,0
24.01.2020 13:00:00 12,5 6,7 4 2 11 6 N 1019,4 19 19 -
24.01.2020 12:00:00 11,5 7,0 1 1 6 3 NO 1019,8 15 14 0,0
24.01.2020 11:00:00 10,0 6,4 2 1 14 7 WZW 1019,5 20 6 0,0
24.01.2020 10:00:00 8,5 4,8 2 1 9 5 ZZW 1019,0 20 0 0,0
24.01.2020 09:00:00 8,4 4,6 8 4 10 5 ZZW 1018,8 20 0 0,0
24.01.2020 08:00:00 8,6 4,3 8 5 14 8 ZW 1018,5 20 0 0,0
24.01.2020 07:00:00 8,0 3,8 9 5 14 7 WZW 1018,3 20 0 -
24.01.2020 06:00:00 7,7 3,9 8 4 16 8 W 1018,1 20 0 0,0
24.01.2020 05:00:00 7,0 3,8 8 5 14 8 W 1017,7 20 0 0,0
24.01.2020 04:00:00 7,4 4,1 7 4 16 9 W 1017,8 20 0 0,0
24.01.2020 03:00:00 7,3 4,5 9 5 14 7 WZW 1017,9 20 0 0,0
24.01.2020 02:00:00 7,4 4,5 11 6 15 8 WZW 1018,0 20 0 0,0
24.01.2020 01:00:00 7,8 4,8 8 4 15 8 WZW 1018,2 20 0 -
24.01.2020 00:00:00 7,6 5,0 8 4 14 7 WZW 1018,2 18 0 0,0
23.01.2020 23:00:00 7,8 5,1 9 5 14 7 ZW 1018,2 17 0 0,0
23.01.2020 22:00:00 8,1 5,5 3 2 11 6 ZW 1018,0 15 0 0,0
23.01.2020 21:00:00 8,3 5,6 6 3 11 6 WZW 1017,9 7 0 0,0
23.01.2020 20:00:00 8,9 6,2 1 1 10 5 WZW 1018,0 15 0 0,0
23.01.2020 19:00:00 9,7 6,4 5 3 8 4 WZW 1017,7 10 0 -

tt = temperatuur
td = dauwpunt
ff = windsnelheid
fx = windstoten
dd = windrichting
ppp = luchtdruk
vv = zicht
sd = Zonneschijnduur
rr = neerslag

Weerstations in de omgeving